Weather History for Detroit, MI

Change the Weather History Date:

Thursday, January 24, 2013

  Actual Average Record
Temperature  
Mean Temperature 16 °F -  
Max Temperature 21 °F 33 °F 57 °F (1950)
Min Temperature 12 °F 21 °F -13 °F (1963)
Degree Days  
Heating Degree Days 48    
Moisture  
Dew Point 5 °F    
Average Humidity 66    
Maximum Humidity 85    
Minimum Humidity 38    
Precipitation  
Precipitation 0.00 in - - ()
Sea Level Pressure  
Sea Level Pressure 30.46 in    
Wind  
Wind Speed 7 mph (North)    
Max Wind Speed 14 mph    
Max Gust Speed 21 mph    
Visibility 9 miles    
Events Snow    
Averages and records for this station are not official NWS values.
T = Trace of Precipitation, MM = Missing Value Source: NWS Daily Summary

Daily Weather History Graph

Daily Weather History Graph

Search for Another Location

Airport:

Trip Planner

Search our weather history database for the weather conditions in past years. The results will help you decide how hot, cold, wet, or windy it might be!

Date:

Astronomy

Jan. 24, 2013 Rise Set
Actual Time 7:52 AM EST 5:36 PM EST
Civil Twilight 7:22 AM EST 6:06 PM EST
Nautical Twilight 6:48 AM EST 6:40 PM EST
Astronomical Twilight 6:15 AM EST 7:13 PM EST
Moon 3:36 PM EST (1/24) 5:50 AM EST (1/24)
Length of Visible Light 10h 43m
Length of Day
9h 43m
Waxing Gibbous, 94% of the Moon is Illuminated
Jan 24
Waxing Gibbous
Jan 26
Full
Feb 3
Last Quarter
Feb 10
New
Feb 17
First Quarter

Hourly Weather History & Observations

Time (EST) Temp. Windchill Dew Point Humidity Pressure Visibility Wind Dir Wind Speed Gust Speed Precip Events Conditions
12:53 AM 15.1 °F 6.4 °F 10.9 °F 84% 30.14 in 6.0 mi NW 5.8 mph - 0.00 in   Overcast
1:53 AM 15.1 °F 4.2 °F 9.0 °F 77% 30.18 in 10.0 mi NNW 8.1 mph - N/A   Mostly Cloudy
2:53 AM 12.9 °F 1.6 °F 8.1 °F 81% 30.23 in 10.0 mi North 8.1 mph - N/A   Clear
3:53 AM 12.9 °F -2.2 °F 7.0 °F 77% 30.27 in 10.0 mi NNW 13.8 mph 19.6 mph N/A   Clear
4:53 AM 12.0 °F 1.5 °F 6.1 °F 77% 30.31 in 10.0 mi NW 6.9 mph - N/A   Clear
5:39 AM 12.2 °F 0.7 °F 6.8 °F 79% 30.30 in 9.0 mi NW 8.1 mph 17.3 mph N/A   Overcast
5:53 AM 12.0 °F 0.5 °F 7.0 °F 80% 30.35 in 7.0 mi NNW 8.1 mph 19.6 mph 0.00 in Snow Light Snow
6:35 AM 12.2 °F -0.2 °F 8.6 °F 85% 30.34 in 2.5 mi NNW 9.2 mph - 0.00 in Snow Light Snow
6:44 AM 12.2 °F -1.0 °F 8.6 °F 85% 30.35 in 3.0 mi NNW 10.4 mph - 0.00 in Snow Light Snow
6:53 AM 14.0 °F 1.2 °F 9.0 °F 80% 30.40 in 3.0 mi North 10.4 mph - 0.00 in Snow Light Snow
7:11 AM 14.0 °F 1.2 °F 8.6 °F 79% 30.38 in 9.0 mi North 10.4 mph - 0.00 in   Overcast
7:53 AM 12.9 °F 2.6 °F 6.1 °F 74% 30.46 in 10.0 mi NNW 6.9 mph - 0.00 in   Overcast
8:53 AM 12.9 °F 1.6 °F 6.1 °F 74% 30.50 in 10.0 mi NNW 8.1 mph - N/A   Clear
9:53 AM 15.1 °F 2.5 °F 6.1 °F 68% 30.54 in 10.0 mi North 10.4 mph - N/A   Clear
10:53 AM 18.0 °F 4.8 °F 5.0 °F 57% 30.58 in 10.0 mi North 12.7 mph 20.7 mph N/A   Clear
11:53 AM 18.0 °F 6.9 °F 3.9 °F 54% 30.59 in 10.0 mi North 9.2 mph - N/A   Clear
12:53 PM 19.0 °F 11.1 °F 1.9 °F 47% 30.58 in 10.0 mi NNW 5.8 mph - N/A   Partly Cloudy
1:53 PM 19.9 °F 14.9 °F 1.9 °F 46% 30.57 in 10.0 mi NW 3.5 mph - N/A   Partly Cloudy
2:53 PM 19.9 °F 12.1 °F -2.0 °F 38% 30.58 in 10.0 mi Variable 5.8 mph - N/A   Clear
3:53 PM 21.0 °F 14.6 °F -0.0 °F 40% 30.58 in 10.0 mi North 4.6 mph - N/A   Clear
4:53 PM 19.0 °F 13.9 °F -2.0 °F 40% 30.59 in 10.0 mi WNW 3.5 mph - N/A   Clear
5:53 PM 17.1 °F - -0.9 °F 45% 30.59 in 10.0 mi Calm Calm - N/A   Clear
6:53 PM 15.1 °F 7.7 °F 5.0 °F 64% 30.60 in 10.0 mi ESE 4.6 mph - N/A   Clear
7:53 PM 14.0 °F 5.1 °F 3.9 °F 64% 30.59 in 10.0 mi East 5.8 mph - N/A   Clear
8:53 PM 14.0 °F 5.1 °F 3.0 °F 62% 30.57 in 10.0 mi NE 5.8 mph - N/A   Clear
9:53 PM 14.0 °F 8.2 °F 3.9 °F 64% 30.56 in 10.0 mi ENE 3.5 mph - N/A   Clear
10:53 PM 14.0 °F 6.5 °F 3.9 °F 64% 30.55 in 10.0 mi East 4.6 mph - N/A   Clear
11:53 PM 14.0 °F 6.5 °F 5.0 °F 67% 30.54 in 10.0 mi East 4.6 mph - N/A   Clear